This is the latest recevied weather packets stored in our database for station/object SP9KB-13. If no packets are shown the sender has not sent any weather packets the latest 10 day(s).
| Time | Temp. | Humidity | Pressure | Rain* | Wind** | Luminosity | Snow |
|---|---|---|---|---|---|---|---|
| 1777993909 | 22.78° C | 28% | 991.7 hPa | 0 mm | - | - | - |
| 1777993608 | 23.33° C | 28% | 991.5 hPa | 0 mm | - | - | - |
| 1777993308 | 23.33° C | 28% | 991.7 hPa | 0 mm | - | - | - |
| 1777993007 | 23.89° C | 27% | 991.6 hPa | 0 mm | - | - | - |
| 1777992706 | 23.89° C | 27% | 991.6 hPa | 0 mm | - | - | - |
| 1777992406 | 24.44° C | 27% | 991.8 hPa | 0 mm | - | - | - |
| 1777992105 | 24.44° C | 26% | 991.8 hPa | 0 mm | - | - | - |
| 1777991804 | 24.44° C | 26% | 991.6 hPa | 0 mm | - | - | - |
| 1777991504 | 25.56° C | 25% | 991.6 hPa | 0 mm | - | - | - |
| 1777991203 | 25.56° C | 25% | 991.6 hPa | 0 mm | - | - | - |
| 1777990903 | 25.56° C | 25% | 991.9 hPa | 0 mm | - | - | - |
| 1777990602 | 25.56° C | 25% | 991.8 hPa | 0 mm | - | - | - |
| 1777990001 | 25.56° C | 23% | 992.1 hPa | 0 mm | - | - | - |
| 1777989700 | 26.11° C | 24% | 991.9 hPa | 0 mm | - | - | - |
| 1777989400 | 26.11° C | 23% | 992.1 hPa | 0 mm | - | - | - |
| 1777989099 | 26.11° C | 23% | 992.2 hPa | 0 mm | - | - | - |
| 1777988799 | 25.56° C | 26% | 992 hPa | 0 mm | - | - | - |
| 1777988498 | 26.11° C | 24% | 991.9 hPa | 0 mm | - | - | - |
| 1777988197 | 26.11° C | 24% | 992.3 hPa | 0 mm | - | - | - |
| 1777987897 | 25° C | 24% | 992.2 hPa | 0 mm | - | - | - |
| 1777987596 | 25° C | 25% | 992.2 hPa | 0 mm | - | - | - |
| 1777987295 | 25° C | 24% | 992.3 hPa | 0 mm | - | - | - |
| 1777986995 | 25.56° C | 24% | 992.2 hPa | 0 mm | - | - | - |
| 1777986694 | 25.56° C | 25% | 992 hPa | 0 mm | - | - | - |
| 1777986394 | 26.11° C | 24% | 992.2 hPa | 0 mm | - | - | - |
* Rain latest hour (hover to see other rain measurements)
** Current wind speed in m/s (hover to see current wind gust speed)